Flag for Canada Weather past 2 weeks in Cranbrook, British Columbia, Canada

Now
59 °F

Scattered clouds.


Feels Like: 55 °F
Forecast: 37 / 55 °F
Wind: 22 mph from Southwest

Location: Cranbrook

Current Time: Mar 31, 2015 at 3:30:22 PM

Latest Report: Mar 31, 2015 at 3:00 PM


Visibility: 25 mi

Pressure: 29.64 "Hg

Humidity: 29%

Dew point: 27 °F

Location of CranbrookLocation

Historic Weather in Cranbrook — Graph

°F

Cranbrook temperature yesterday

Maximum temperature yesterday: 63 °F (at 4:00 PM)
Minimum temperature yesterday: 43 °F (at 7:00 AM)
Average temperature yesterday: 52 °F

Past Weeks' High & Low Weather Summary

 TemperatureHumidityPressure
High70 °F (Mar 27, 5:00 PM)100% (Mar 17, 2:00 AM)30.46 "Hg (Mar 17, 2:00 AM)
Low25 °F (Mar 17, 8:00 AM)29% (Mar 27, 5:00 PM)29.66 "Hg (Mar 31, 2:00 PM)
Average43 °F72%30.07 "Hg
* Reported Mar 16 2:00 PM — Mar 31 2:00 PM, Cranbrook, Weather by CustomWeather, © 2015

Note: Actual official high and low records may vary slightly from our data, if they occured in-between our weather recording intervals... More about our weather records

Advertising

Cranbrook weather history for previous 24 hours

 ConditionsComfort  
Time TempWeatherWind HumidityBarometerVisibility
2:00 PM
Tue, Mar 31
57 °FScattered clouds.12 mph39%29.66 "Hg25 mi
1:00 PM57 °FBroken clouds.21 mph41%29.68 "Hg25 mi
12:00 PM55 °FBroken clouds.3 mph44%29.68 "Hg25 mi
11:00 AM46 °FPartly sunny.6 mph62%29.72 "Hg25 mi
10:00 AM43 °FPassing clouds.3 mph71%29.72 "Hg25 mi
9:00 AM37 °FPassing clouds.3 mph81%29.75 "Hg45 mi
8:00 AM34 °FPassing clouds.5 mph87%29.77 "Hg25 mi
7:00 AM30 °FPassing clouds.6 mph93%29.78 "Hg25 mi
6:00 AM32 °FPassing clouds.5 mph87%29.79 "Hg25 mi
5:00 AM36 °FPassing clouds.6 mph87%29.80 "Hg25 mi
4:00 AM36 °FPassing clouds.3 mph81%29.82 "Hg25 mi
3:00 AM39 °FPassing clouds.7 mph75%29.84 "Hg25 mi
2:00 AM41 °FPassing clouds.5 mph70%29.85 "Hg25 mi
1:09 AM39 °FPassing clouds.7 mph75%29.87 "Hg25 mi
12:00 AM45 °FClear.8 mph66%29.88 "Hg25 mi
11:00 PM
Mon, Mar 30
50 °FPassing clouds.6 mph50%29.89 "Hg25 mi
10:00 PM52 °FPartly sunny.2 mph47%29.91 "Hg25 mi
9:00 PM54 °FPartly sunny.6 mph44%29.91 "Hg25 mi
8:00 PM57 °FBroken clouds.10 mph36%29.91 "Hg25 mi
7:00 PM61 °FBroken clouds.10 mph31%29.92 "Hg25 mi
6:00 PM61 °FBroken clouds.16 mph31%29.92 "Hg25 mi
5:00 PM61 °FPartly sunny.14 mph31%29.94 "Hg25 mi
4:00 PM63 °FBroken clouds.21 mph30%29.95 "Hg25 mi
3:00 PM59 °FPartly sunny.12 mph36%30.00 "Hg25 mi
Weather by CustomWeather, © 2015

See weather overviewHow to use our weather pages